GW3806 Weather Reports


Display with metric or nautical units.
time (UTC)temp
F
wind
direction
speed
MPH
gust
MPH
rain 1hr
in
rain 24hr
in
rain mn
in
humidity
%
barometer
mb
20260906203027 76 220 11.0 15.0 0.00 0.00 0.00 30 1016.0
20260906202523 77 213 5.0 13.0 0.00 0.00 0.00 30 1016.0
20260906202019 76 168 5.0 11.0 0.00 0.00 0.00 32 1016.1
20260906201518 76 207 13.0 15.0 0.00 0.00 0.00 32 1016.2
20260906201013 76 161 10.0 14.0 0.00 0.00 0.00 33 1016.4
20260906200508 76 192 4.0 11.0 0.00 0.00 0.00 32 1016.2
20260906200004 75 201 4.0 16.0 0.00 0.00 0.00 32 1016.6
20260906195500 75 241 6.0 8.0 0.00 0.00 0.00 32 1016.5
20260906194956 75 211 6.0 12.0 0.00 0.00 0.00 32 1016.4
20260906194451 75 229 10.0 19.0 0.00 0.00 0.00 31 1016.5
20260906193947 76 184 7.0 20.0 0.00 0.00 0.00 29 1016.5
20260906193447 77 240 9.0 21.0 0.00 0.00 0.00 32 1016.6
20260906192942 78 148 3.0 9.0 0.00 0.00 0.00 30 1016.7
20260906192437 75 212 5.0 9.0 0.00 0.00 0.00 32 1017.0
20260906191937 76 142 7.0 18.0 0.00 0.00 0.00 31 1016.8
20260906191432 77 172 7.0 13.0 0.00 0.00 0.00 31 1017.0
20260906190931 75 147 9.0 15.0 0.00 0.00 0.00 30 1017.1
20260906190430 75 161 13.0 16.0 0.00 0.00 0.00 30 1017.0
20260906185925 75 160 10.0 16.0 0.00 0.00 0.00 29 1017.3
20260906185424 75 161 5.0 14.0 0.00 0.00 0.00 30 1017.2
20260906184923 75 142 12.0 22.0 0.00 0.00 0.00 30 1017.4
20260906184419 76 199 3.0 20.0 0.00 0.00 0.00 31 1017.3
20260906183913 74 214 14.0 18.0 0.00 0.00 0.00 31 1017.4
20260906183410 75 207 9.0 14.0 0.00 0.00 0.00 30 1017.4
20260906182905 74 220 5.0 17.0 0.00 0.00 0.00 32 1017.3
20260906182401 75 212 5.0 17.0 0.00 0.00 0.00 31 1017.4
20260906181856 75 223 17.0 18.0 0.00 0.00 0.00 32 1017.7
20260906181352 75 173 5.0 15.0 0.00 0.00 0.00 31 1017.6
20260906180848 73 199 7.0 16.0 0.00 0.00 0.00 31 1017.7
20260906180342 74 204 10.0 15.0 0.00 0.00 0.00 31 1017.6
20260906175839 74 208 7.0 19.0 0.00 0.00 0.00 33 1017.8
20260906175335 73 206 8.0 20.0 0.00 0.00 0.00 32 1017.8
20260906174833 74 219 12.0 16.0 0.00 0.00 0.00 34 1017.8
20260906174328 74 173 6.0 15.0 0.00 0.00 0.00 33 1018.2
20260906173822 73 210 16.0 19.0 0.00 0.00 0.00 33 1018.1
20260906173318 74 156 2.0 17.0 0.00 0.00 0.00 33 1018.2
20260906172817 73 220 16.0 24.0 0.00 0.00 0.00 31 1018.2
20260906172313 74 206 8.0 16.0 0.00 0.00 0.00 32 1018.2
20260906171808 73 217 6.0 17.0 0.00 0.00 0.00 33 1018.2
20260906171303 74 160 9.0 21.0 0.00 0.00 0.00 32 1018.3
20260906170758 73 163 9.0 14.0 0.00 0.00 0.00 33 1018.4
20260906170254 75 171 4.0 12.0 0.00 0.00 0.00 33 1018.3
20260906165750 73 169 6.0 18.0 0.00 0.00 0.00 35 1018.4
20260906165244 73 241 3.0 14.0 0.00 0.00 0.00 34 1018.4
20260906164743 73 161 9.0 15.0 0.00 0.00 0.00 34 1018.2
20260906164238 73 180 3.0 15.0 0.00 0.00 0.00 33 1018.3
20260906163734 73 217 11.0 17.0 0.00 0.00 0.00 34 1018.4
20260906163231 72 199 9.0 19.0 0.00 0.00 0.00 32 1018.4
20260906162727 72 207 7.0 16.0 0.00 0.00 0.00 33 1018.4
20260906162222 72 214 9.0 19.0 0.00 0.00 0.00 34 1018.5
20260906161717 73 175 7.0 12.0 0.00 0.00 0.00 33 1018.5
20260906161216 72 163 6.0 12.0 0.00 0.00 0.00 34 1018.4
20260906160715 72 211 7.0 10.0 0.00 0.00 0.00 34 1018.4
20260906160214 72 220 8.0 11.0 0.00 0.00 0.00 34 1018.7
20260906155712 72 167 7.0 16.0 0.00 0.00 0.00 34 1018.5
20260906155207 72 175 5.0 15.0 0.00 0.00 0.00 33 1018.7
20260906154702 72 201 3.0 13.0 0.00 0.00 0.00 34 1018.5
20260906154157 72 219 9.0 10.0 0.00 0.00 0.00 33 1018.7
20260906153655 72 211 5.0 8.0 0.00 0.00 0.00 35 1018.5
20260906153150 71 207 9.0 13.0 0.00 0.00 0.00 33 1018.7
20260906152645 71 186 8.0 12.0 0.00 0.00 0.00 33 1018.7
20260906152144 71 230 4.0 6.0 0.00 0.00 0.00 38 1018.5
20260906151639 72 180 3.0 5.0 0.00 0.00 0.00 35 1018.5
20260906151135 71 167 3.0 6.0 0.00 0.00 0.00 35 1018.3
20260906150630 70 176 3.0 7.0 0.00 0.00 0.00 35 1018.3
20260906150126 69 174 3.0 6.0 0.00 0.00 0.00 38 1018.3
20260906145624 70 178 3.0 5.0 0.00 0.00 0.00 36 1018.5
20260906145119 70 171 4.0 7.0 0.00 0.00 0.00 36 1018.5
20260906144614 68 81 0.0 2.0 0.00 0.00 0.00 42 1018.4
20260906144109 67 97 1.0 3.0 0.00 0.00 0.00 44 1018.3
20260906143609 67 93 3.0 5.0 0.00 0.00 0.00 43 1018.7
20260906143106 66 90 2.0 3.0 0.00 0.00 0.00 42 1018.5
20260906142605 65 98 1.0 3.0 0.00 0.00 0.00 46 1018.4
20260906142101 63 18 1.0 4.0 0.00 0.00 0.00 46 1018.4
20260906141559 62 23 1.0 4.0 0.00 0.00 0.00 47 1018.4
20260906141050 63 0 0.0 3.0 0.00 0.00 0.00 46 1018.7
20260906140548 63 3 2.0 4.0 0.00 0.00 0.00 44 1018.3
20260906140043 61 29 1.0 2.0 0.00 0.00 0.00 46 1018.3
20260906135540 58 15 0.0 3.0 0.00 0.00 0.00 49 1018.2
20260906135037 56 3 3.0 4.0 0.00 0.00 0.00 51 1018.2
20260906134536 55 79 3.0 4.0 0.00 0.00 0.00 53 1018.1
20260906134031 54 66 0.0 4.0 0.00 0.00 0.00 54 1018.2
20260906133527 54 94 3.0 3.0 0.00 0.00 0.00 53 1018.1
20260906133023 52 60 0.0 2.0 0.00 0.00 0.00 56 1018.1
20260906132518 53 90 1.0 5.0 0.00 0.00 0.00 54 1018.2
20260906132013 53 356 2.0 3.0 0.00 0.00 0.00 53 1018.2
20260906131508 54 73 3.0 4.0 0.00 0.00 0.00 52 1018.1
20260906131004 53 74 1.0 2.0 0.00 0.00 0.00 54 1018.1
20260906130504 53 38 2.0 6.0 0.00 0.00 0.00 54 1017.9
20260906130004 55 83 3.0 4.0 0.00 0.00 0.00 48 1017.9
20260906125501 55 47 3.0 3.0 0.00 0.00 0.00 49 1018.1
20260906125001 53 23 2.0 3.0 0.00 0.00 0.00 53 1017.9
20260906124456 54 45 3.0 5.0 0.00 0.00 0.00 52 1017.9
20260906123951 57 21 0.0 3.0 0.00 0.00 0.00 48 1018.1
20260906123450 60 90 4.0 7.0 0.00 0.00 0.00 41 1017.7
20260906122945 56 77 3.0 5.0 0.00 0.00 0.00 48 1017.8
20260906122445 58 36 2.0 3.0 0.00 0.00 0.00 46 1017.8
20260906121942 59 111 5.0 6.0 0.00 0.00 0.00 43 1018.1
20260906121437 62 68 0.0 4.0 0.00 0.00 0.00 40 1017.8
20260906120934 62 135 4.0 5.0 0.00 0.00 0.00 38 1017.8
20260906120429 61 135 2.0 3.0 0.00 0.00 0.00 40 1017.8
20260906115926 59 28 3.0 3.0 0.00 0.00 0.00 44 1017.7
20260906115421 59 88 4.0 4.0 0.00 0.00 0.00 45 1017.8
20260906114920 61 20 1.0 5.0 0.00 0.00 0.00 41 1017.8
20260906114415 59 96 2.0 4.0 0.00 0.00 0.00 44 1017.8
20260906113911 57 54 1.0 3.0 0.00 0.00 0.00 49 1017.8
20260906113409 57 81 0.0 1.0 0.00 0.00 0.00 44 1017.7
20260906112905 57 90 3.0 4.0 0.00 0.00 0.00 46 1017.8
20260906112401 55 14 3.0 3.0 0.00 0.00 0.00 49 1017.7
20260906111855 57 53 2.0 3.0 0.00 0.00 0.00 49 1017.8
20260906111349 55 28 3.0 4.0 0.00 0.00 0.00 51 1017.7
20260906110844 57 23 3.0 5.0 0.00 0.00 0.00 49 1017.6
20260906110340 61 300 0.0 2.0 0.00 0.00 0.00 41 1017.4
20260906105839 62 135 3.0 5.0 0.00 0.00 0.00 40 1017.4
20260906105335 59 140 0.0 3.0 0.00 0.00 0.00 45 1017.4
20260906104831 56 90 1.0 3.0 0.00 0.00 0.00 50 1017.6
20260906104329 55 66 2.0 3.0 0.00 0.00 0.00 51 1017.6
20260906103827 54 74 1.0 4.0 0.00 0.00 0.00 54 1017.2
20260906103321 53 90 1.0 3.0 0.00 0.00 0.00 55 1017.3
20260906102817 54 90 0.0 2.0 0.00 0.00 0.00 55 1017.1
20260906102316 55 56 2.0 3.0 0.00 0.00 0.00 53 1017.2
20260906101811 55 90 1.0 3.0 0.00 0.00 0.00 54 1017.2
20260906101306 55 45 3.0 3.0 0.00 0.00 0.00 53 1017.2
20260906100802 57 30 2.0 3.0 0.00 0.00 0.00 49 1017.2
20260906100300 59 29 3.0 3.0 0.00 0.00 0.00 46 1017.1
20260906095755 57 26 1.0 3.0 0.00 0.00 0.00 49 1017.2
20260906095251 56 39 3.0 3.0 0.00 0.00 0.00 50 1017.0
20260906094745 55 45 2.0 3.0 0.00 0.00 0.00 53 1017.0
20260906094240 55 41 2.0 3.0 0.00 0.00 0.00 53 1017.0
20260906093736 55 90 2.0 3.0 0.00 0.00 0.00 53 1016.8
20260906093231 55 32 0.0 3.0 0.00 0.00 0.00 53 1017.0
20260906092727 55 74 0.0 3.0 0.00 0.00 0.00 54 1017.0
20260906092226 54 90 2.0 4.0 0.00 0.00 0.00 54 1017.0
20260906091722 54 85 2.0 2.0 0.00 0.00 0.00 56 1017.1
20260906091213 54 99 2.0 3.0 0.00 0.00 0.00 56 1017.1
20260906090709 53 353 0.0 2.0 0.00 0.00 0.00 56 1017.0
20260906090208 53 83 1.0 3.0 0.00 0.00 0.00 57 1017.1
20260906085707 53 90 0.0 4.0 0.00 0.00 0.00 56 1017.1
20260906085206 51 12 0.0 1.0 0.00 0.00 0.00 60 1017.2
20260906084701 51 81 0.0 4.0 0.00 0.00 0.00 60 1017.1
20260906084200 51 83 0.0 3.0 0.00 0.00 0.00 60 1017.1
20260906083655 52 5 0.0 3.0 0.00 0.00 0.00 59 1017.1
20260906083151 52 90 2.0 3.0 0.00 0.00 0.00 59 1017.1
20260906082646 53 270 0.0 2.0 0.00 0.00 0.00 57 1017.3
20260906082141 54 107 2.0 6.0 0.00 0.00 0.00 56 1017.4
20260906081637 54 113 0.0 5.0 0.00 0.00 0.00 55 1017.2
20260906081132 54 97 4.0 5.0 0.00 0.00 0.00 56 1017.2
20260906080629 54 97 3.0 8.0 0.00 0.00 0.00 55 1017.3
20260906080125 54 96 3.0 7.0 0.00 0.00 0.00 55 1017.3
20260906075624 54 118 3.0 6.0 0.00 0.00 0.00 56 1017.3
20260906075119 54 79 3.0 3.0 0.00 0.00 0.00 55 1017.4
20260906074614 54 90 2.0 3.0 0.00 0.00 0.00 54 1017.4
20260906074108 55 102 2.0 7.0 0.00 0.00 0.00 54 1017.4
20260906073608 55 41 0.0 5.0 0.00 0.00 0.00 54 1017.4
20260906073103 55 97 4.0 6.0 0.00 0.00 0.00 53 1017.4
20260906072558 56 85 2.0 8.0 0.00 0.00 0.00 52 1017.6
20260906072054 55 74 6.0 9.0 0.00 0.00 0.00 52 1017.7
20260906071551 56 116 5.0 8.0 0.00 0.00 0.00 52 1017.8
20260906071045 55 102 5.0 8.0 0.00 0.00 0.00 53 1017.7
20260906070542 55 88 6.0 7.0 0.00 0.00 0.00 53 1017.8
20260906070037 55 93 4.0 6.0 0.00 0.00 0.00 53 1017.8
20260906065537 55 103 4.0 9.0 0.00 0.00 0.00 53 1017.9
20260906065032 56 84 2.0 10.0 0.00 0.00 0.00 51 1017.8
20260906064528 56 75 3.0 12.0 0.00 0.00 0.00 51 1018.1
20260906064022 56 83 4.0 8.0 0.00 0.00 0.00 51 1018.2
20260906063518 55 42 3.0 6.0 0.00 0.00 0.00 51 1018.1
20260906063014 55 63 4.0 8.0 0.00 0.00 0.00 52 1018.2
20260906062508 55 117 9.0 9.0 0.00 0.00 0.00 52 1018.3
20260906061957 56 80 4.0 9.0 0.00 0.00 0.00 52 1017.9
20260906061454 54 73 5.0 8.0 0.00 0.00 0.00 54 1018.1
20260906060953 54 90 3.0 9.0 0.00 0.00 0.00 54 1018.3
20260906060450 53 92 7.0 10.0 0.00 0.00 0.00 56 1018.4
20260906055946 54 49 5.0 8.0 0.00 0.00 0.00 55 1018.5
20260906055436 55 105 2.0 7.0 0.00 0.00 0.00 54 1018.5
20260906054931 55 111 0.0 4.0 0.00 0.00 0.00 54 1018.4
20260906054426 55 7 1.0 7.0 0.00 0.00 0.00 54 1018.8
20260906053922 55 86 3.0 5.0 0.00 0.00 0.00 55 1018.8
20260906053418 54 54 1.0 4.0 0.00 0.00 0.00 55 1018.8
20260906052913 54 106 1.0 3.0 0.00 0.00 0.00 55 1018.8
20260906052409 55 113 5.0 5.0 0.00 0.00 0.00 54 1018.9
20260906051906 55 26 2.0 5.0 0.00 0.00 0.00 54 1019.0
20260906051406 54 120 0.0 4.0 0.00 0.00 0.00 56 1019.0
20260906050902 54 105 0.0 3.0 0.00 0.00 0.00 57 1018.8
20260906050356 54 20 1.0 3.0 0.00 0.00 0.00 57 1019.1
20260906045855 54 132 0.0 5.0 0.00 0.00 0.00 57 1019.0
20260906045355 54 105 3.0 3.0 0.00 0.00 0.00 57 1019.0
20260906044851 54 96 3.0 5.0 0.00 0.00 0.00 57 1019.0
20260906044351 54 100 4.0 4.0 0.00 0.00 0.00 59 1019.0
20260906043847 54 99 6.0 6.0 0.00 0.00 0.00 59 1019.1
20260906043343 54 0 0.0 5.0 0.00 0.00 0.00 59 1019.1
20260906042838 54 57 3.0 5.0 0.00 0.00 0.00 60 1019.3
20260906042337 54 90 0.0 5.0 0.00 0.00 0.00 61 1019.1
20260906041833 55 74 3.0 5.0 0.00 0.00 0.00 61 1019.0
20260906041328 54 90 0.0 6.0 0.00 0.00 0.00 62 1019.1
20260906040828 54 96 4.0 6.0 0.00 0.00 0.00 62 1019.3
20260906040329 54 63 4.0 5.0 0.00 0.00 0.00 63 1019.1
20260906035824 54 98 2.0 5.0 0.00 0.00 0.00 63 1019.4
20260906035319 54 99 2.0 4.0 0.00 0.00 0.00 64 1019.3
20260906034815 54 90 7.0 8.0 0.00 0.00 0.00 64 1019.1
20260906034314 55 41 0.0 5.0 0.00 0.00 0.00 64 1019.1
20260906033811 55 23 3.0 4.0 0.00 0.00 0.00 63 1019.1
20260906033309 56 30 2.0 7.0 0.00 0.00 0.00 64 1019.0
20260906032806 56 80 3.0 10.0 0.00 0.00 0.00 63 1019.1
20260906032305 56 72 5.0 10.0 0.00 0.00 0.00 65 1019.1
20260906031757 55 49 2.0 7.0 0.00 0.00 0.00 66 1019.0
20260906031253 56 103 2.0 5.0 0.00 0.00 0.00 65 1018.9
20260906030752 57 5 2.0 4.0 0.00 0.00 0.00 64 1018.9
20260906030248 57 66 1.0 3.0 0.00 0.00 0.00 64 1018.8
20260906025747 57 90 3.0 6.0 0.00 0.00 0.00 64 1018.8
20260906025241 58 98 6.0 8.0 0.00 0.00 0.00 64 1018.8
20260906024740 57 73 0.0 9.0 0.00 0.00 0.00 64 1018.8
20260906024239 57 180 1.0 4.0 0.00 0.00 0.00 66 1018.5
20260906023735 57 94 0.0 2.0 0.00 0.00 0.00 66 1018.5
20260906023230 57 352 0.0 2.0 0.00 0.00 0.00 66 1018.4
20260906022726 58 82 2.0 6.0 0.00 0.00 0.00 66 1018.4
20260906022221 58 67 2.0 5.0 0.00 0.00 0.00 66 1018.4
20260906021717 58 90 3.0 5.0 0.00 0.00 0.00 66 1018.5
20260906021215 58 353 0.0 1.0 0.00 0.00 0.00 65 1018.5
20260906020711 59 0 1.0 2.0 0.00 0.00 0.00 66 1018.5
20260906020205 58 90 0.0 2.0 0.00 0.00 0.00 67 1018.3
20260906015700 60 90 3.0 4.0 0.00 0.00 0.00 66 1018.4
20260906015158 62 0 0.0 0.0 0.00 0.00 0.00 59 1018.4
20260906014652 64 349 2.0 2.0 0.00 0.00 0.00 56 1018.2
20260906014148 65 90 0.0 0.0 0.00 0.00 0.00 56 1018.4
20260906013644 66 98 0.0 3.0 0.00 0.00 0.00 53 1018.5
20260906013139 67 246 0.0 2.0 0.00 0.00 0.00 49 1018.7
20260906012639 68 278 0.0 1.0 0.00 0.00 0.00 47 1018.4
20260906012134 70 270 2.0 3.0 0.00 0.00 0.00 46 1018.5
20260906011630 71 253 0.0 2.0 0.00 0.00 0.00 45 1018.5
20260906011124 73 301 2.0 4.0 0.00 0.00 0.00 43 1018.5
20260906010619 73 246 0.0 2.0 0.00 0.00 0.00 43 1018.4
20260906010116 73 303 3.0 4.0 0.00 0.00 0.00 43 1018.4
20260906005609 73 276 2.0 4.0 0.00 0.00 0.00 43 1018.4
20260906005109 73 270 0.0 5.0 0.00 0.00 0.00 43 1018.3
20260906004608 74 250 2.0 3.0 0.00 0.00 0.00 41 1018.3
20260906004103 74 264 0.0 3.0 0.00 0.00 0.00 41 1018.3
20260906003558 74 327 2.0 6.0 0.00 0.00 0.00 42 1018.4
20260906003054 74 255 0.0 6.0 0.00 0.00 0.00 42 1018.2
20260906002549 75 342 0.0 6.0 0.00 0.00 0.00 42 1018.2
20260906002043 75 270 2.0 5.0 0.00 0.00 0.00 40 1018.3
20260906001538 75 0 2.0 4.0 0.00 0.00 0.00 41 1017.9
20260906001032 75 275 2.0 5.0 0.00 0.00 0.00 40 1018.1
20260906000529 75 268 4.0 7.0 0.00 0.00 0.00 39 1018.2
20260906000024 75 276 1.0 8.0 0.00 0.00 0.00 41 1018.1
20260905235517 76 240 3.0 5.0 0.00 0.00 0.00 41 1018.2
20260905235013 76 336 2.0 8.0 0.00 0.00 0.00 42 1018.2
20260905234509 75 258 2.0 9.0 0.00 0.00 0.00 38 1017.9
20260905234003 77 263 4.0 5.0 0.00 0.00 0.00 39 1017.9
20260905233458 77 270 1.0 4.0 0.00 0.00 0.00 38 1018.1
20260905232956 76 351 2.0 6.0 0.00 0.00 0.00 41 1017.9
20260905232453 76 8 4.0 6.0 0.00 0.00 0.00 39 1017.9
20260905231948 76 284 3.0 7.0 0.00 0.00 0.00 41 1018.1
20260905231443 75 262 5.0 5.0 0.00 0.00 0.00 42 1018.1
20260905230935 76 4 4.0 9.0 0.00 0.00 0.00 41 1017.8
20260905230432 75 322 2.0 6.0 0.00 0.00 0.00 43 1017.9
20260905225931 75 319 0.0 5.0 0.00 0.00 0.00 41 1017.8
20260905225426 79 270 0.0 8.0 0.00 0.00 0.00 37 1017.9
20260905224921 78 239 4.0 7.0 0.00 0.00 0.00 36 1017.7
20260905224417 76 232 3.0 9.0 0.00 0.00 0.00 37 1018.1
20260905223911 78 296 7.0 11.0 0.00 0.00 0.00 37 1017.7
20260905223409 77 342 2.0 4.0 0.00 0.00 0.00 36 1017.7
20260905222908 78 289 3.0 6.0 0.00 0.00 0.00 37 1017.8
20260905222408 77 280 0.0 8.0 0.00 0.00 0.00 37 1017.8
20260905221904 79 226 4.0 10.0 0.00 0.00 0.00 36 1017.8
20260905221400 79 214 5.0 11.0 0.00 0.00 0.00 31 1017.9
20260905220856 78 301 2.0 11.0 0.00 0.00 0.00 32 1017.9
20260905220352 78 263 3.0 6.0 0.00 0.00 0.00 31 1017.9
20260905215851 78 205 9.0 9.0 0.00 0.00 0.00 31 1018.1
20260905215347 77 196 4.0 12.0 0.00 0.00 0.00 33 1018.2
20260905214843 76 243 5.0 14.0 0.00 0.00 0.00 31 1018.2
20260905214338 78 215 8.0 13.0 0.00 0.00 0.00 33 1018.3
20260905213833 78 217 3.0 17.0 0.00 0.00 0.00 32 1018.3
20260905213329 79 199 10.0 11.0 0.00 0.00 0.00 33 1018.1
20260905212819 77 220 5.0 12.0 0.00 0.00 0.00 33 1017.9
20260905212318 79 275 7.0 11.0 0.00 0.00 0.00 34 1018.1
20260905211813 77 141 5.0 12.0 0.00 0.00 0.00 33 1018.1
20260905211307 78 188 3.0 15.0 0.00 0.00 0.00 36 1018.3
20260905210804 76 268 6.0 12.0 0.00 0.00 0.00 34 1018.3
20260905210304 77 209 5.0 17.0 0.00 0.00 0.00 33 1018.2
20260905205802 77 245 8.0 13.0 0.00 0.00 0.00 33 1018.4
20260905205257 77 211 3.0 12.0 0.00 0.00 0.00 33 1018.4
20260905204756 77 200 4.0 11.0 0.00 0.00 0.00 34 1018.4
20260905204253 78 236 6.0 8.0 0.00 0.00 0.00 34 1018.5
20260905203752 78 233 4.0 6.0 0.00 0.00 0.00 34 1018.4